Location: Alincthun
(50.7310°N, 1.8022°E)
Time: 14:50:57
(UTC+00:00)

STARLINK-1184 - Pass Details

Date: 17 February 2020
Orbit: 379 x 380 km, 53.0° (Epoch: 28 March)

Event Time Altitude Azimuth Distance (km) Brightness Sun altitude
Exits shadow 03:37:03 - 72° (ENE) 1,598 6.9 -32.7°
Enters shadow 04:33:03 -68° 257° (WSW) 12,187 10.5 -24.2°
Maximum altitude 05:09:25 55° 356° (N) 472 3.2 -18.5°
